Massena, NY

3:29 AM EST on January 20, 2018 (GMT -0500)
Massena International-Richards

Weather History for KMSS - March, 2014

Change the Weather History Date:

Monday, March 24, 2014

  Actual Average Record
Temperature  
Mean Temperature 7 °F 32 °F  
Max Temperature 25 °F 41 °F 67 °F (1979)
Min Temperature -11 °F 22 °F -11 °F (2014)
Degree Days  
Heating Degree Days 58 33  
Month to date heating degree days 1155 926  
Since 1 July heating degree days 7324 6913  
Cooling Degree Days 0 0  
Month to date cooling degree days 0 0  
Year to date cooling degree days 0 0  
Moisture  
Dew Point -4 °F    
Average Humidity 59    
Maximum Humidity 83    
Minimum Humidity 35    
Precipitation  
Precipitation 0.00 in 0.07 in 0.80 in (1953)
Month to date precipitation 0.40 1.58  
Year to date precipitation 3.14 5.53  
Sea Level Pressure  
Sea Level Pressure 30.20 in    
Wind  
Wind Speed 7 mph (SW)    
Max Wind Speed 21 mph    
Max Gust Speed 25 mph    
Visibility 10 miles    
Events      
T = Trace of Precipitation, MM = Missing Value Source: NWS Daily Summary

Daily Weather History Graph

Daily Weather History Graph

Search for Another Location

Airport or City:

Trip Planner

Search our weather history database for the weather conditions in past years. The results will help you decide how hot, cold, wet, or windy it might be!

Date:

Astronomy

Mar. 24, 2014 Rise Set
Actual Time 6:55 AM EDT 7:16 PM EDT
Civil Twilight 6:25 AM EDT 7:46 PM EDT
Nautical Twilight 5:51 AM EDT 8:21 PM EDT
Astronomical Twilight 5:15 AM EDT 8:56 PM EDT
Moon 2:37 AM EDT (3/24) 12:25 PM EDT (3/24)
Length of Visible Light 13h 20m
Length of Day
12h 21m
Last Quarter, 43% of the Moon is Illuminated
Mar 24
Last Quarter
Mar 30
New
Apr 7
First Quarter
Apr 15
Full
Apr 22
Last Quarter

Hourly Weather History & Observations

Time (EDT) Temp. Windchill Dew Point Humidity Pressure Visibility Wind Dir Wind Speed Gust Speed Precip Events Conditions
12:53 AM -0.9 °F - -9.0 °F 69% 30.26 in 10.0 mi Calm Calm - N/A   Clear
1:53 AM -2.9 °F - -9.9 °F 72% 30.27 in 10.0 mi Calm Calm - N/A   Clear
2:53 AM -6.0 °F - -11.0 °F 79% 30.27 in 10.0 mi Calm Calm - N/A   Clear
3:53 AM -7.1 °F - -13.0 °F 75% 30.27 in 10.0 mi Calm Calm - N/A   Clear
4:53 AM -9.0 °F - -14.1 °F 79% 30.27 in 10.0 mi Calm Calm - N/A   Clear
5:53 AM -9.0 °F - -15.0 °F 75% 30.27 in 10.0 mi Calm Calm - N/A   Clear
6:53 AM -9.0 °F - -14.1 °F 79% 30.28 in 9.0 mi Calm Calm - N/A   Clear
7:53 AM -9.0 °F -20.4 °F -13.0 °F 83% 30.29 in 10.0 mi SSW 4.6 mph - N/A   Clear
8:53 AM 1.0 °F -8.7 °F -7.1 °F 69% 30.29 in 10.0 mi SW 4.6 mph - N/A   Clear
9:53 AM 10.9 °F - -4.0 °F 51% 30.28 in 10.0 mi Calm Calm - N/A   Clear
10:53 AM 16.0 °F 6.3 °F -6.0 °F 38% 30.26 in 10.0 mi WSW 6.9 mph - N/A   Clear
11:53 AM 19.0 °F 8.2 °F -2.9 °F 38% 30.24 in 10.0 mi WSW 9.2 mph - N/A   Clear
12:53 PM 21.0 °F 12.4 °F -0.9 °F 38% 30.22 in 10.0 mi West 6.9 mph - N/A   Clear
1:53 PM 23.0 °F 10.1 °F -0.9 °F 35% 30.19 in 10.0 mi West 15.0 mph 23.0 mph N/A   Clear
2:53 PM 24.1 °F 15.2 °F 1.0 °F 37% 30.17 in 10.0 mi WSW 8.1 mph - N/A   Scattered Clouds
3:53 PM 24.1 °F 13.1 °F -0.0 °F 35% 30.14 in 10.0 mi SW 11.5 mph - N/A   Partly Cloudy
4:53 PM 24.1 °F 11.0 °F 3.9 °F 42% 30.12 in 10.0 mi SW 16.1 mph - N/A   Scattered Clouds
5:53 PM 23.0 °F 9.2 °F 5.0 °F 46% 30.12 in 10.0 mi SW 17.3 mph - N/A   Scattered Clouds
6:53 PM 21.9 °F 8.2 °F 3.9 °F 46% 30.11 in 10.0 mi SW 16.1 mph - N/A   Clear
7:53 PM 19.0 °F 7.5 °F 5.0 °F 54% 30.12 in 10.0 mi SSW 10.4 mph - N/A   Clear
8:53 PM 18.0 °F 7.7 °F 3.9 °F 54% 30.12 in 10.0 mi SSW 8.1 mph - N/A   Clear
9:53 PM 17.1 °F 4.3 °F 5.0 °F 59% 30.11 in 10.0 mi SSW 11.5 mph - N/A   Clear
10:53 PM 16.0 °F 3.6 °F 5.0 °F 62% 30.11 in 10.0 mi SW 10.4 mph - N/A   Clear
11:53 PM 15.1 °F 3.3 °F 3.9 °F 61% 30.10 in 10.0 mi SW 9.2 mph - N/A   Clear